This is the latest recevied weather packets stored in our database for station/object OE5RBO. If no packets are shown the sender has not sent any weather packets the latest 10 day(s).
| Time | Temp. | Humidity | Pressure | Rain* | Wind** | Luminosity | Snow |
|---|---|---|---|---|---|---|---|
| 1777765593 | 11.11° C | 74% | 1016.6 hPa | 0 mm | - | - | - |
| 1777764993 | 11.67° C | 73% | 1016.7 hPa | 0 mm | - | - | - |
| 1777764391 | 11.67° C | 71% | 1016.7 hPa | 0 mm | - | - | - |
| 1777763791 | 12.22° C | 70% | 1016.7 hPa | 0 mm | - | - | - |
| 1777763191 | 12.22° C | 69% | 1016.7 hPa | 0 mm | - | - | - |
| 1777762591 | 12.78° C | 69% | 1016.8 hPa | 0 mm | - | - | - |
| 1777760789 | 12.78° C | 65% | 1016.9 hPa | 0 mm | - | - | - |
| 1777760189 | 13.33° C | 64% | 1016.9 hPa | 0 mm | - | - | - |
| 1777759589 | 13.33° C | 63% | 1016.9 hPa | 0 mm | - | - | - |
| 1777758989 | 13.89° C | 58% | 1016.9 hPa | 0 mm | - | - | - |
| 1777758388 | 13.89° C | 58% | 1016.9 hPa | 0 mm | - | - | - |
| 1777757787 | 14.44° C | 58% | 1016.9 hPa | 0 mm | - | - | - |
| 1777757187 | 14.44° C | 57% | 1016.7 hPa | 0 mm | - | - | - |
| 1777755986 | 13.89° C | 56% | 1017 hPa | 0 mm | - | - | - |
| 1777754786 | 15° C | 57% | 1017.2 hPa | 0 mm | - | - | - |
| 1777754185 | 16.11° C | 47% | 1017.1 hPa | 0 mm | - | - | - |
| 1777753585 | 16.11° C | 50% | 1017.2 hPa | 0 mm | - | - | - |
| 1777752985 | 17.22° C | 43% | 1017.2 hPa | 0 mm | - | - | - |
| 1777752384 | 17.22° C | 41% | 1017.2 hPa | 0 mm | - | - | - |
| 1777751784 | 17.78° C | 41% | 1017.3 hPa | 0 mm | - | - | - |
| 1777750583 | 18.33° C | 39% | 1017.3 hPa | 0 mm | - | - | - |
| 1777749382 | 18.89° C | 37% | 1017.3 hPa | 0 mm | - | - | - |
| 1777748782 | 19.44° C | 36% | 1017.2 hPa | 0 mm | - | - | - |
| 1777747581 | 20° C | 35% | 1017.2 hPa | 0 mm | - | - | - |
| 1777746381 | 20° C | 37% | 1017.2 hPa | 0 mm | - | - | - |
* Rain since midnight (hover to see other rain measurements)
** Current wind speed in m/s (hover to see current wind gust speed)